Wetterdaten: Samstag, 23.05.2015
Datum Zeit Temp. A. Mod.Schuppen Waschkche Feuchte A. Luftdruck Regen Wind Richtung Richtung Sonnenschein Helligkeit Solar
23.05.2015 00:04 14,4 C 11,2 C 17,0 C 65 % 1022,0 hPa 0,0 l/m 0,2 km/h (0 Bft) N 350 0 min 0 lux 0 W/m
23.05.2015 00:09 14,2 C 11,2 C 17,0 C 66 % 1022,0 hPa 0,0 l/m 0,9 km/h (0 Bft) N-NW 345 0 min 0 lux 0 W/m
23.05.2015 00:14 14,2 C 11,1 C 17,0 C 67 % 1022,0 hPa 0,0 l/m 6,0 km/h (2 Bft) N22.5 5 0 min 0 lux 0 W/m
23.05.2015 00:19 14,3 C 11,1 C 17,0 C 67 % 1022,0 hPa 0,0 l/m 4,4 km/h (1 Bft) N22.5 10 0 min 1,30 klux 0 W/m
23.05.2015 00:24 14,4 C 11,4 C 16,9 C 68 % 1022,0 hPa 0,0 l/m 8,6 km/h (2 Bft) N22.5 5 0 min 0 lux 0 W/m
23.05.2015 00:29 14,5 C 11,5 C 16,9 C 68 % 1022,0 hPa 0,0 l/m 5,6 km/h (2 Bft) N22.5 10 0 min 0 lux 0 W/m
23.05.2015 00:34 14,5 C 11,6 C 16,9 C 68 % 1022,0 hPa 0,0 l/m 5,7 km/h (2 Bft) N 360 0 min 0 lux 0 W/m
23.05.2015 00:39 14,5 C 12,0 C 16,9 C 68 % 1022,0 hPa 0,0 l/m 5,0 km/h (1 Bft) N 5 0 min 0 lux 0 W/m
23.05.2015 00:44 14,6 C 12,4 C 16,9 C 69 % 1022,0 hPa 0,0 l/m 6,8 km/h (2 Bft) N22.5 5 0 min 0 lux 0 W/m
23.05.2015 00:49 14,6 C 12,7 C 16,9 C 69 % 1022,0 hPa 0,0 l/m 7,3 km/h (2 Bft) N22.5 5 0 min 0 lux 0 W/m
23.05.2015 00:54 14,7 C 12,7 C 16,9 C 68 % 1022,0 hPa 0,0 l/m 3,7 km/h (1 Bft) N 10 0 min 0 lux 0 W/m
23.05.2015 00:59 14,7 C 12,8 C 16,9 C 68 % 1022,0 hPa 0,0 l/m 0,7 km/h (0 Bft) N 10 0 min 0 lux 0 W/m
23.05.2015 01:04 14,7 C 12,8 C 16,9 C 68 % 1022,0 hPa 0,0 l/m 0,0 km/h (0 Bft) N 10 0 min 0 lux 0 W/m
23.05.2015 01:09 14,6 C 12,8 C 16,9 C 68 % 1022,0 hPa 0,0 l/m 0,0 km/h (0 Bft) N 10 0 min 0 lux 0 W/m
23.05.2015 01:14 14,6 C 12,7 C 16,8 C 68 % 1022,0 hPa 0,0 l/m 0,0 km/h (0 Bft) N 10 0 min 0 lux 0 W/m
23.05.2015 01:19 14,7 C 12,7 C 16,9 C 69 % 1022,0 hPa 0,0 l/m 6,1 km/h (2 Bft) N22.5 5 0 min 0 lux 0 W/m
23.05.2015 01:24 14,7 C 12,7 C 16,9 C 69 % 1022,0 hPa 0,0 l/m 6,1 km/h (2 Bft) N22.5 5 0 min 0 lux 0 W/m
23.05.2015 01:29 14,7 C 12,7 C 16,8 C 69 % 1022,0 hPa 0,0 l/m 5,5 km/h (2 Bft) N-NO22.5 15 0 min 0 lux 0 W/m
23.05.2015 01:34 14,7 C 12,5 C 16,8 C 69 % 1022,0 hPa 0,0 l/m 4,8 km/h (1 Bft) N 10 0 min 0 lux 0 W/m
23.05.2015 01:39 14,6 C 12,4 C 16,8 C 70 % 1022,0 hPa 0,0 l/m 4,2 km/h (1 Bft) N 10 0 min 11,0 klux 0 W/m
23.05.2015 01:44 14,6 C 12,4 C 16,8 C 70 % 1022,0 hPa 0,0 l/m 5,0 km/h (1 Bft) N 10 0 min 0 lux 0 W/m
23.05.2015 01:49 14,5 C 12,3 C 16,8 C 70 % 1022,0 hPa 0,0 l/m 4,5 km/h (1 Bft) N 10 0 min 0 lux 0 W/m
23.05.2015 01:54 14,5 C 12,2 C 16,8 C 69 % 1022,0 hPa 0,0 l/m 1,3 km/h (1 Bft) N 10 0 min 0 lux 0 W/m
23.05.2015 01:59 14,3 C 12,1 C 16,8 C 69 % 1022,0 hPa 0,0 l/m 0,9 km/h (0 Bft) N 10 0 min 0 lux 0 W/m
23.05.2015 02:04 14,2 C 12,0 C 16,8 C 70 % 1022,0 hPa 0,0 l/m 0,0 km/h (0 Bft) N 10 0 min 0 lux 0 W/m
23.05.2015 02:09 14,2 C 12,0 C 16,8 C 70 % 1022,0 hPa 0,0 l/m 0,0 km/h (0 Bft) N 10 0 min 0 lux 0 W/m
23.05.2015 02:14 14,2 C 12,1 C 16,8 C 70 % 1022,0 hPa 0,0 l/m 0,0 km/h (0 Bft) N 10 0 min 0 lux 0 W/m
23.05.2015 02:19 14,2 C 12,1 C 16,8 C 70 % 1022,0 hPa 0,0 l/m 0,0 km/h (0 Bft) N 10 0 min 0 lux 0 W/m
23.05.2015 02:24 14,2 C 12,1 C 16,8 C 71 % 1022,0 hPa 0,0 l/m 0,0 km/h (0 Bft) N 10 0 min 0 lux 0 W/m
23.05.2015 02:29 14,1 C 12,1 C 16,8 C 71 % 1022,0 hPa 0,0 l/m 0,0 km/h (0 Bft) N 10 0 min 0 lux 0 W/m
23.05.2015 02:33 14,2 C 12,2 C 16,8 C 71 % 1021,0 hPa 0,0 l/m 0,0 km/h (0 Bft) N 10 0 min 0 lux 0 W/m
23.05.2015 02:39 14,1 C 12,2 C 16,7 C 71 % 1021,0 hPa 0,0 l/m 0,0 km/h (0 Bft) N 10 0 min 0 lux 0 W/m
23.05.2015 02:44 14,1 C 12,2 C 16,7 C 71 % 1021,0 hPa 0,0 l/m 0,0 km/h (0 Bft) N 10 0 min 0 lux 0 W/m
23.05.2015 02:49 13,9 C 12,1 C 16,7 C 72 % 1021,0 hPa 0,0 l/m 0,0 km/h (0 Bft) N 10 0 min 0 lux 0 W/m
23.05.2015 02:54 13,7 C 11,8 C 16,7 C 71 % 1021,0 hPa 0,0 l/m 0,0 km/h (0 Bft) N 10 0 min 0 lux 0 W/m
23.05.2015 02:59 13,6 C 11,4 C 16,7 C 71 % 1021,0 hPa 0,0 l/m 0,0 km/h (0 Bft) N 10 0 min 7,00 klux 0 W/m
23.05.2015 03:04 13,5 C 11,2 C 16,7 C 71 % 1021,0 hPa 0,0 l/m 0,0 km/h (0 Bft) N 10 0 min 0 lux 0 W/m
23.05.2015 03:09 13,3 C 10,9 C 16,7 C 72 % 1021,0 hPa 0,0 l/m 0,0 km/h (0 Bft) N 10 0 min 0 lux 0 W/m
23.05.2015 03:14 13,2 C 10,5 C 16,7 C 72 % 1021,0 hPa 0,0 l/m 0,0 km/h (0 Bft) N 10 0 min 0 lux 0 W/m
23.05.2015 03:19 13,0 C 10,2 C 16,7 C 73 % 1021,0 hPa 0,0 l/m 0,0 km/h (0 Bft) N 10 0 min 0 lux 0 W/m
23.05.2015 03:24 12,8 C 10,0 C 16,7 C 73 % 1021,0 hPa 0,0 l/m 0,0 km/h (0 Bft) N 10 0 min 0 lux 0 W/m
23.05.2015 03:29 12,8 C 9,8 C 16,7 C 74 % 1021,0 hPa 0,0 l/m 0,0 km/h (0 Bft) N 10 0 min 0 lux 0 W/m
23.05.2015 03:34 12,8 C 9,7 C 16,7 C 73 % 1021,0 hPa 0,0 l/m 0,0 km/h (0 Bft) N 10 0 min 0 lux 0 W/m
23.05.2015 03:39 12,6 C 9,7 C 16,7 C 74 % 1021,0 hPa 0,0 l/m 0,0 km/h (0 Bft) N 10 0 min 0 lux 0 W/m
23.05.2015 03:44 12,5 C 9,8 C 16,7 C 75 % 1021,0 hPa 0,0 l/m 0,0 km/h (0 Bft) N 10 0 min 0 lux 0 W/m
23.05.2015 03:49 12,6 C 10,2 C 16,7 C 76 % 1021,0 hPa 0,0 l/m 3,9 km/h (1 Bft) N 360 0 min 0 lux 0 W/m
23.05.2015 03:54 12,8 C 10,2 C 16,7 C 76 % 1021,0 hPa 0,0 l/m 2,4 km/h (1 Bft) N 360 0 min 0 lux 0 W/m
23.05.2015 03:59 12,7 C 10,5 C 16,7 C 76 % 1021,0 hPa 0,0 l/m 0,0 km/h (0 Bft) N 360 0 min 0 lux 0 W/m
23.05.2015 04:03 12,7 C 10,5 C 16,7 C 75 % 1021,0 hPa 0,0 l/m 0,0 km/h (0 Bft) N 360 0 min 0 lux 0 W/m
23.05.2015 04:09 12,6 C 10,7 C 16,7 C 76 % 1021,0 hPa 0,0 l/m 0,0 km/h (0 Bft) N 360 0 min 0 lux 0 W/m
23.05.2015 04:14 12,6 C 10,7 C 16,7 C 76 % 1021,0 hPa 0,0 l/m 0,0 km/h (0 Bft) N 360 0 min 0 lux 0 W/m
23.05.2015 04:19 12,6 C 10,9 C 16,7 C 76 % 1021,0 hPa 0,0 l/m 0,0 km/h (0 Bft) N 360 0 min 1,44 klux 0 W/m
23.05.2015 04:24 12,8 C 11,2 C 16,7 C 77 % 1021,0 hPa 0,0 l/m 0,0 km/h (0 Bft) N 360 0 min 0 lux 0 W/m
23.05.2015 04:29 13,0 C 11,4 C 16,7 C 76 % 1021,0 hPa 0,0 l/m 0,0 km/h (0 Bft) N 360 0 min 0 lux 0 W/m
23.05.2015 04:34 13,1 C 11,6 C 16,6 C 76 % 1021,0 hPa 0,0 l/m 3,6 km/h (1 Bft) NW22.5 310 0 min 0 lux 0 W/m
23.05.2015 04:39 13,1 C 11,8 C 16,6 C 76 % 1021,0 hPa 0,0 l/m 0,0 km/h (0 Bft) NW 305 0 min 0 lux 0 W/m
23.05.2015 04:44 13,1 C 11,9 C 16,6 C 75 % 1021,0 hPa 0,0 l/m 2,0 km/h (1 Bft) NW 305 0 min 0 lux 0 W/m
23.05.2015 04:49 13,2 C 11,9 C 16,6 C 75 % 1021,0 hPa 0,0 l/m 0,0 km/h (0 Bft) NW 305 0 min 0 lux 0 W/m
23.05.2015 04:54 13,1 C 11,8 C 16,6 C 74 % 1021,0 hPa 0,0 l/m 0,0 km/h (0 Bft) NW 305 0 min 0 lux 0 W/m
23.05.2015 04:59 13,1 C 11,8 C 16,6 C 74 % 1021,0 hPa 0,0 l/m 0,0 km/h (0 Bft) NW 305 0 min 0 lux 0 W/m
23.05.2015 05:04 13,0 C 11,7 C 16,6 C 74 % 1021,0 hPa 0,0 l/m 0,0 km/h (0 Bft) NW 305 0 min 0 lux 0 W/m
23.05.2015 05:09 13,0 C 11,7 C 16,6 C 74 % 1021,0 hPa 0,0 l/m 0,0 km/h (0 Bft) NW 305 0 min 0 lux 0 W/m
23.05.2015 05:14 13,0 C 11,7 C 16,6 C 73 % 1021,0 hPa 0,0 l/m 0,0 km/h (0 Bft) NW 305 0 min 38 lux 0 W/m
23.05.2015 05:19 13,0 C 11,7 C 16,6 C 73 % 1021,0 hPa 0,0 l/m 4,8 km/h (1 Bft) W 265 0 min 67 lux 0 W/m
23.05.2015 05:24 13,0 C 11,7 C 16,6 C 73 % 1021,0 hPa 0,0 l/m 6,1 km/h (2 Bft) W 260 0 min 114 lux 0 W/m
23.05.2015 05:29 13,0 C 11,7 C 16,6 C 73 % 1021,0 hPa 0,0 l/m 7,6 km/h (2 Bft) W22.5 275 0 min 143 lux 0 W/m
23.05.2015 05:34 12,9 C 11,7 C 16,5 C 74 % 1021,0 hPa 0,0 l/m 8,7 km/h (2 Bft) W 275 0 min 211 lux 0 W/m
23.05.2015 05:39 12,9 C 11,8 C 16,5 C 74 % 1021,0 hPa 0,0 l/m 8,3 km/h (2 Bft) W 275 0 min 200 klux 1368 W/m
23.05.2015 05:43 12,9 C 11,9 C 16,5 C 74 % 1021,0 hPa 0,0 l/m 7,7 km/h (2 Bft) W 275 0 min 427 lux 3 W/m
23.05.2015 05:49 12,9 C 11,9 C 16,5 C 73 % 1021,0 hPa 0,0 l/m 6,3 km/h (2 Bft) W 275 0 min 574 lux 4 W/m
23.05.2015 05:54 12,9 C 11,9 C 16,5 C 73 % 1021,0 hPa 0,0 l/m 5,9 km/h (2 Bft) W 270 0 min 745 lux 5 W/m
23.05.2015 05:59 12,9 C 12,0 C 16,5 C 73 % 1021,0 hPa 0,0 l/m 6,8 km/h (2 Bft) W-NW22.5 285 0 min 972 lux 7 W/m
23.05.2015 06:04 13,0 C 12,0 C 16,5 C 73 % 1021,0 hPa 0,0 l/m 8,5 km/h (2 Bft) W 265 0 min 972 lux 7 W/m
23.05.2015 06:09 12,9 C 12,1 C 16,5 C 73 % 1021,0 hPa 0,0 l/m 8,7 km/h (2 Bft) W22.5 270 0 min 1,36 klux 9 W/m
23.05.2015 06:14 12,9 C 12,1 C 16,5 C 73 % 1021,0 hPa 0,0 l/m 6,1 km/h (2 Bft) W-SW 250 0 min 1,61 klux 11 W/m
23.05.2015 06:19 12,9 C 12,2 C 16,5 C 73 % 1021,0 hPa 0,0 l/m 7,1 km/h (2 Bft) W-SW 250 0 min 1,84 klux 13 W/m
23.05.2015 06:24 13,0 C 12,3 C 16,5 C 73 % 1021,0 hPa 0,0 l/m 5,9 km/h (2 Bft) W-SW 250 0 min 2,03 klux 14 W/m
23.05.2015 06:29 13,0 C 12,4 C 16,5 C 73 % 1021,0 hPa 0,0 l/m 5,5 km/h (2 Bft) W-SW22.5 245 0 min 2,30 klux 16 W/m
23.05.2015 06:34 13,0 C 12,5 C 16,4 C 73 % 1021,0 hPa 0,0 l/m 8,9 km/h (2 Bft) W-NW22.5 285 0 min 2,43 klux 17 W/m
23.05.2015 06:39 13,0 C 12,6 C 16,4 C 72 % 1021,0 hPa 0,0 l/m 9,5 km/h (2 Bft) W-NW22.5 300 0 min 2,91 klux 20 W/m
23.05.2015 06:44 13,2 C 12,8 C 16,4 C 71 % 1021,0 hPa 0,0 l/m 8,1 km/h (2 Bft) W-NW 295 0 min 3,44 klux 24 W/m
23.05.2015 06:49 13,2 C 13,0 C 16,4 C 71 % 1021,0 hPa 0,0 l/m 8,7 km/h (2 Bft) NW22.5 310 0 min 4,11 klux 28 W/m
23.05.2015 06:54 13,2 C 13,2 C 16,4 C 71 % 1021,0 hPa 0,0 l/m 8,9 km/h (2 Bft) W-NW22.5 295 0 min 4,65 klux 32 W/m
23.05.2015 06:59 13,3 C 13,3 C 16,4 C 71 % 1021,0 hPa 0,0 l/m 11,2 km/h (2 Bft) W45 280 5 min 200 klux 1368 W/m
23.05.2015 07:04 13,3 C 13,5 C 16,4 C 70 % 1021,0 hPa 0,0 l/m 7,2 km/h (2 Bft) W22.5 270 0 min 6,21 klux 42 W/m
23.05.2015 07:09 13,4 C 13,9 C 16,4 C 71 % 1021,0 hPa 0,0 l/m 5,4 km/h (2 Bft) W 280 0 min 7,18 klux 49 W/m
23.05.2015 07:14 13,5 C 14,0 C 16,4 C 71 % 1021,0 hPa 0,0 l/m 7,5 km/h (2 Bft) W45 270 0 min 7,18 klux 49 W/m
23.05.2015 07:19 13,6 C 14,2 C 16,4 C 71 % 1021,0 hPa 0,0 l/m 9,2 km/h (2 Bft) W-SW22.5 245 0 min 7,18 klux 49 W/m
23.05.2015 07:24 13,6 C 14,6 C 16,4 C 71 % 1021,0 hPa 0,0 l/m 7,9 km/h (2 Bft) W-SW22.5 250 0 min 8,40 klux 57 W/m
23.05.2015 07:29 13,6 C 14,8 C 16,3 C 71 % 1021,0 hPa 0,0 l/m 9,2 km/h (2 Bft) W-SW22.5 250 0 min 8,94 klux 61 W/m
23.05.2015 07:34 13,7 C 15,1 C 16,4 C 70 % 1021,0 hPa 0,0 l/m 9,5 km/h (2 Bft) W22.5 260 0 min 9,8 klux 67 W/m
23.05.2015 07:39 13,8 C 15,2 C 16,3 C 70 % 1021,0 hPa 0,0 l/m 9,6 km/h (2 Bft) W22.5 265 0 min 10,0 klux 68 W/m
23.05.2015 07:44 13,8 C 15,6 C 16,3 C 69 % 1021,0 hPa 0,0 l/m 10,3 km/h (2 Bft) W22.5 265 0 min 10,6 klux 73 W/m
23.05.2015 07:49 14,0 C 15,7 C 16,3 C 70 % 1021,0 hPa 0,0 l/m 15,0 km/h (3 Bft) W-SW22.5 240 0 min 11,3 klux 77 W/m
23.05.2015 07:54 14,0 C 16,0 C 16,3 C 70 % 1021,0 hPa 0,0 l/m 8,8 km/h (2 Bft) W-SW22.5 250 0 min 11,3 klux 77 W/m
23.05.2015 07:59 14,0 C 16,2 C 16,3 C 70 % 1021,0 hPa 0,0 l/m 8,7 km/h (2 Bft) W-SW22.5 240 0 min 11,7 klux 80 W/m
23.05.2015 08:04 14,1 C 16,3 C 16,3 C 70 % 1021,0 hPa 0,0 l/m 7,3 km/h (2 Bft) W-SW22.5 240 0 min 12,3 klux 84 W/m
23.05.2015 08:09 14,1 C 16,7 C 16,3 C 70 % 1021,0 hPa 0,0 l/m 8,7 km/h (2 Bft) W-SW 250 0 min 13,0 klux 89 W/m
23.05.2015 08:14 14,3 C 16,9 C 16,3 C 68 % 1021,0 hPa 0,0 l/m 5,6 km/h (2 Bft) W-SW 255 0 min 13,7 klux 94 W/m
23.05.2015 08:19 14,4 C 16,9 C 16,3 C 67 % 1021,0 hPa 0,0 l/m 56,2 km/h (7 Bft) N67.5 360 0 min 10,6 klux 73 W/m
23.05.2015 08:24 14,4 C 17,3 C 16,3 C 66 % 1021,0 hPa 0,0 l/m 9,6 km/h (2 Bft) W-SW22.5 255 0 min 15,6 klux 107 W/m
23.05.2015 08:29 14,5 C 17,7 C 16,3 C 67 % 1021,0 hPa 0,0 l/m 8,1 km/h (2 Bft) W-NW22.5 285 0 min 17,2 klux 118 W/m
23.05.2015 08:34 14,6 C 18,0 C 16,3 C 66 % 1021,0 hPa 0,0 l/m 8,1 km/h (2 Bft) NW22.5 305 0 min 17,2 klux 118 W/m
23.05.2015 08:39 14,6 C 18,1 C 16,3 C 66 % 1021,0 hPa 0,0 l/m 10,0 km/h (2 Bft) W22.5 280 0 min 18,2 klux 124 W/m
23.05.2015 08:43 14,6 C 18,0 C 16,3 C 67 % 1021,0 hPa 0,0 l/m 12,4 km/h (2 Bft) NW45 315 0 min 18,8 klux 129 W/m
23.05.2015 08:49 14,6 C 18,2 C 16,3 C 67 % 1021,0 hPa 0,0 l/m 11,3 km/h (2 Bft) NW45 305 0 min 20,9 klux 143 W/m
23.05.2015 08:54 14,6 C 18,6 C 16,3 C 68 % 1021,0 hPa 0,0 l/m 9,9 km/h (2 Bft) W45 265 0 min 21,4 klux 146 W/m
23.05.2015 08:59 14,6 C 19,0 C 16,3 C 68 % 1021,0 hPa 0,0 l/m 11,5 km/h (2 Bft) W22.5 260 0 min 21,9 klux 150 W/m
23.05.2015 09:04 14,7 C 19,3 C 16,3 C 68 % 1021,0 hPa 0,0 l/m 10,1 km/h (2 Bft) W22.5 275 0 min 21,8 klux 149 W/m
23.05.2015 09:08 14,7 C 19,7 C 16,3 C 68 % 1021,0 hPa 0,0 l/m 10,6 km/h (2 Bft) W22.5 260 0 min 23,0 klux 157 W/m
23.05.2015 09:14 14,8 C 19,8 C 16,3 C 68 % 1021,0 hPa 0,0 l/m 10,0 km/h (2 Bft) W22.5 265 0 min 26,0 klux 178 W/m
23.05.2015 09:19 14,8 C 20,1 C 16,3 C 68 % 1021,0 hPa 0,0 l/m 8,2 km/h (2 Bft) W-NW45 295 0 min 27,2 klux 186 W/m
23.05.2015 09:24 14,9 C 20,6 C 16,3 C 68 % 1021,0 hPa 0,0 l/m 8,2 km/h (2 Bft) W-NW45 295 0 min 30,4 klux 208 W/m
23.05.2015 09:29 15,0 C 21,1 C 16,3 C 68 % 1021,0 hPa 0,0 l/m 12,0 km/h (2 Bft) W 270 0 min 31,9 klux 218 W/m
23.05.2015 09:34 15,0 C 21,9 C 16,3 C 67 % 1021,0 hPa 0,0 l/m 11,3 km/h (2 Bft) W22.5 270 0 min 36,8 klux 252 W/m
23.05.2015 09:39 15,0 C 22,4 C 16,3 C 65 % 1021,0 hPa 0,0 l/m 12,0 km/h (2 Bft) W-NW22.5 285 0 min 355 lux 2 W/m
23.05.2015 09:44 15,2 C 22,8 C 16,3 C 65 % 1020,9 hPa 0,0 l/m 10,1 km/h (2 Bft) W67.5 270 0 min 38,3 klux 262 W/m
23.05.2015 09:49 15,2 C 23,8 C 16,3 C 66 % 1020,9 hPa 0,0 l/m 6,9 km/h (2 Bft) W45 280 0 min 38,3 klux 262 W/m
23.05.2015 09:54 15,3 C 24,3 C 16,3 C 65 % 1020,9 hPa 0,0 l/m 7,9 km/h (2 Bft) W22.5 260 0 min 40,4 klux 276 W/m
23.05.2015 09:59 15,6 C 24,8 C 16,3 C 65 % 1020,9 hPa 0,0 l/m 9,1 km/h (2 Bft) W22.5 280 5 min 53,1 klux 363 W/m
23.05.2015 10:04 15,7 C 26,9 C 16,3 C 64 % 1020,9 hPa 0,0 l/m 10,5 km/h (2 Bft) W22.5 260 5 min 60,6 klux 415 W/m
23.05.2015 10:09 16,0 C 27,6 C 16,3 C 61 % 1020,9 hPa 0,0 l/m 12,3 km/h (2 Bft) W-NW22.5 295 5 min 68,2 klux 466 W/m
23.05.2015 10:14 16,0 C 29,7 C 16,3 C 61 % 1020,9 hPa 0,0 l/m 12,3 km/h (2 Bft) W-NW22.5 295 5 min 73,6 klux 503 W/m
23.05.2015 10:19 16,6 C 29,7 C 16,3 C 59 % 1020,9 hPa 0,0 l/m 9,5 km/h (2 Bft) W22.5 265 5 min 96,4 klux 659 W/m
23.05.2015 10:24 16,6 C 33,6 C 16,3 C 59 % 1020,9 hPa 0,0 l/m 7,4 km/h (2 Bft) NW22.5 305 5 min 79,6 klux 544 W/m
23.05.2015 10:29 16,9 C 34,6 C 16,4 C 57 % 1020,9 hPa 0,0 l/m 12,6 km/h (3 Bft) SW45 235 5 min 72,9 klux 499 W/m
23.05.2015 10:34 17,0 C 35,1 C 16,4 C 56 % 1020,9 hPa 0,0 l/m 8,6 km/h (2 Bft) W-NW22.5 285 5 min 70,4 klux 482 W/m
23.05.2015 10:38 17,2 C 35,7 C 16,4 C 54 % 1020,9 hPa 0,0 l/m 11,8 km/h (2 Bft) W45 260 4 min 71,1 klux 486 W/m
23.05.2015 10:44 17,4 C 36,5 C 16,4 C 54 % 1020,9 hPa 0,0 l/m 11,8 km/h (2 Bft) W45 260 6 min 85,5 klux 585 W/m
23.05.2015 10:49 17,8 C 37,3 C 16,5 C 52 % 1020,9 hPa 0,0 l/m 6,8 km/h (2 Bft) S-SW22.5 210 5 min 70,0 klux 479 W/m
23.05.2015 10:54 17,7 C 35,5 C 16,5 C 52 % 1020,9 hPa 0,0 l/m 8,7 km/h (2 Bft) W45 260 5 min 58,0 klux 397 W/m
23.05.2015 10:59 18,2 C 36,4 C 16,5 C 52 % 1020,9 hPa 0,0 l/m 14,8 km/h (3 Bft) W45 260 5 min 88,1 klux 603 W/m
23.05.2015 11:03 17,9 C 36,8 C 16,6 C 50 % 1020,9 hPa 0,0 l/m 10,3 km/h (2 Bft) W22.5 265 4 min 77,2 klux 528 W/m
23.05.2015 11:09 17,9 C 36,7 C 16,6 C 50 % 1020,9 hPa 0,0 l/m 11,4 km/h (2 Bft) W22.5 270 6 min 85,6 klux 586 W/m
23.05.2015 11:14 18,1 C 37,5 C 16,6 C 50 % 1020,9 hPa 0,0 l/m 14,8 km/h (3 Bft) W-SW67.5 250 5 min 84,2 klux 576 W/m
23.05.2015 11:19 18,4 C 38,2 C 16,7 C 48 % 1020,9 hPa 0,0 l/m 12,8 km/h (3 Bft) W-NW45 285 5 min 93,6 klux 640 W/m
23.05.2015 11:24 18,9 C 38,8 C 16,7 C 45 % 1020,9 hPa 0,0 l/m 17,4 km/h (3 Bft) NW22.5 315 5 min 96,3 klux 659 W/m
23.05.2015 11:29 18,9 C 38,1 C 16,8 C 45 % 1020,9 hPa 0,0 l/m 14,7 km/h (3 Bft) W-NW45 300 5 min 104 klux 711 W/m
23.05.2015 11:34 19,2 C 39,0 C 16,8 C 46 % 1020,9 hPa 0,0 l/m 14,5 km/h (3 Bft) NW45 320 5 min 87,1 klux 596 W/m
23.05.2015 11:39 19,2 C 37,1 C 16,9 C 46 % 1020,9 hPa 0,0 l/m 18,8 km/h (3 Bft) W-NW45 285 5 min 79,3 klux 542 W/m
23.05.2015 11:44 18,8 C 34,3 C 16,9 C 44 % 1020,9 hPa 0,0 l/m 15,1 km/h (3 Bft) W-NW45 285 5 min 72,1 klux 493 W/m
23.05.2015 11:49 18,8 C 32,7 C 17,0 C 44 % 1020,9 hPa 0,0 l/m 14,9 km/h (3 Bft) W-NW22.5 300 5 min 70,4 klux 482 W/m
23.05.2015 11:54 19,3 C 33,7 C 17,0 C 44 % 1020,9 hPa 0,0 l/m 14,1 km/h (3 Bft) W-NW22.5 290 5 min 74,9 klux 512 W/m
23.05.2015 11:59 19,3 C 33,2 C 17,0 C 44 % 1020,9 hPa 0,0 l/m 15,1 km/h (3 Bft) N-NW45 330 5 min 72,4 klux 495 W/m
23.05.2015 12:04 19,4 C 34,0 C 17,1 C 43 % 1020,9 hPa 0,0 l/m 10,5 km/h (2 Bft) N22.5 350 5 min 69,6 klux 476 W/m
23.05.2015 12:09 19,2 C 32,1 C 17,1 C 41 % 1020,9 hPa 0,0 l/m 16,2 km/h (3 Bft) N-NW45 330 0 min 64,1 klux 438 W/m
23.05.2015 12:14 19,2 C 32,2 C 17,1 C 44 % 1020,9 hPa 0,0 l/m 15,4 km/h (3 Bft) W67.5 275 0 min 59,5 klux 407 W/m
23.05.2015 12:19 19,3 C 31,0 C 17,2 C 44 % 1020,9 hPa 0,0 l/m 18,9 km/h (3 Bft) W-NW45 285 0 min 61,2 klux 419 W/m
23.05.2015 12:24 19,4 C 31,0 C 17,2 C 44 % 1020,9 hPa 0,0 l/m 15,8 km/h (3 Bft) N-NW45 340 0 min 59,9 klux 410 W/m
23.05.2015 12:29 19,4 C 31,1 C 17,2 C 43 % 1020,9 hPa 0,0 l/m 15,8 km/h (3 Bft) N-NW45 340 0 min 61,9 klux 423 W/m
23.05.2015 12:34 19,4 C 31,2 C 17,2 C 44 % 1020,9 hPa 0,0 l/m 13,1 km/h (3 Bft) N22.5 350 5 min 69,6 klux 476 W/m
23.05.2015 12:39 19,9 C 33,0 C 17,1 C 45 % 1020,9 hPa 0,0 l/m 11,3 km/h (2 Bft) N-NO45 25 5 min 73,3 klux 501 W/m
23.05.2015 12:44 19,7 C 32,9 C 17,2 C 46 % 1019,9 hPa 0,0 l/m 18,0 km/h (3 Bft) N22.5 5 5 min 85,0 klux 581 W/m
23.05.2015 12:49 19,5 C 32,6 C 17,2 C 49 % 1019,9 hPa 0,0 l/m 19,2 km/h (3 Bft) NW45 325 5 min 75,1 klux 514 W/m
23.05.2015 12:54 19,5 C 32,2 C 17,3 C 49 % 1019,9 hPa 0,0 l/m 14,4 km/h (3 Bft) N-NW22.5 335 5 min 66,9 klux 458 W/m
23.05.2015 12:59 19,5 C 31,2 C 17,2 C 49 % 1019,9 hPa 0,0 l/m 19,5 km/h (3 Bft) N45 360 5 min 66,9 klux 458 W/m
23.05.2015 13:04 19,5 C 31,2 C 17,3 C 50 % 1019,9 hPa 0,0 l/m 14,9 km/h (3 Bft) N-NW45 345 5 min 104 klux 711 W/m
23.05.2015 13:09 19,9 C 37,3 C 17,3 C 51 % 1019,9 hPa 0,0 l/m 18,4 km/h (3 Bft) N-NW22.5 335 5 min 70,2 klux 480 W/m
23.05.2015 13:14 19,9 C 35,8 C 17,3 C 49 % 1019,9 hPa 0,0 l/m 14,6 km/h (3 Bft) N45 5 5 min 95,7 klux 655 W/m
23.05.2015 13:19 20,0 C 36,2 C 17,3 C 51 % 1019,9 hPa 0,0 l/m 16,3 km/h (3 Bft) N-NW67.5 345 5 min 85,2 klux 583 W/m
23.05.2015 13:24 20,1 C 37,3 C 17,4 C 52 % 1019,9 hPa 0,0 l/m 14,2 km/h (3 Bft) W-NW45 295 5 min 118 klux 807 W/m
23.05.2015 13:28 20,3 C 36,8 C 17,5 C 51 % 1019,9 hPa 0,0 l/m 16,2 km/h (3 Bft) N45 5 4 min 86,9 klux 594 W/m
23.05.2015 13:34 20,3 C 36,5 C 17,5 C 53 % 1019,9 hPa 0,0 l/m 13,1 km/h (3 Bft) N45 355 6 min 81,4 klux 557 W/m
23.05.2015 13:39 20,3 C 34,9 C 17,5 C 53 % 1019,9 hPa 0,0 l/m 24,7 km/h (4 Bft) N45 10 5 min 78,4 klux 536 W/m
23.05.2015 13:44 20,2 C 32,2 C 17,5 C 52 % 1019,9 hPa 0,0 l/m 17,7 km/h (3 Bft) N22.5 360 0 min 63,8 klux 436 W/m
23.05.2015 13:49 20,0 C 30,0 C 17,6 C 53 % 1019,9 hPa 0,0 l/m 14,6 km/h (3 Bft) N67.5 350 0 min 54,1 klux 370 W/m
23.05.2015 13:54 19,8 C 29,3 C 17,6 C 53 % 1019,9 hPa 0,0 l/m 14,0 km/h (3 Bft) N45 360 0 min 47,0 klux 321 W/m
23.05.2015 13:59 19,5 C 28,0 C 17,6 C 54 % 1019,9 hPa 0,0 l/m 23,5 km/h (4 Bft) N45 10 0 min 43,2 klux 295 W/m
23.05.2015 14:04 19,6 C 27,4 C 17,6 C 56 % 1019,9 hPa 0,0 l/m 9,4 km/h (2 Bft) N-NO45 30 0 min 42,4 klux 290 W/m
23.05.2015 14:09 19,8 C 27,6 C 17,6 C 55 % 1019,9 hPa 0,0 l/m 12,4 km/h (2 Bft) N45 10 0 min 43,0 klux 294 W/m
23.05.2015 14:14 19,7 C 28,0 C 17,6 C 57 % 1019,9 hPa 0,0 l/m 13,9 km/h (3 Bft) N45 360 0 min 43,4 klux 297 W/m
23.05.2015 14:19 19,6 C 28,5 C 17,6 C 57 % 1019,9 hPa 0,0 l/m 15,8 km/h (3 Bft) N-NO22.5 15 0 min 42,0 klux 287 W/m
23.05.2015 14:24 19,4 C 28,2 C 17,7 C 58 % 1019,9 hPa 0,0 l/m 16,6 km/h (3 Bft) N22.5 5 0 min 43,3 klux 296 W/m
23.05.2015 14:29 19,6 C 27,5 C 17,7 C 58 % 1019,9 hPa 0,0 l/m 20,1 km/h (4 Bft) N22.5 355 0 min 44,4 klux 304 W/m
23.05.2015 14:34 19,6 C 27,4 C 17,7 C 59 % 1019,9 hPa 0,0 l/m 23,9 km/h (4 Bft) N45 5 0 min 37,4 klux 256 W/m
23.05.2015 14:39 19,4 C 26,9 C 17,7 C 59 % 1019,9 hPa 0,0 l/m 15,9 km/h (3 Bft) N-NO45 15 0 min 41,6 klux 285 W/m
23.05.2015 14:44 19,3 C 26,3 C 17,7 C 59 % 1019,9 hPa 0,0 l/m 17,1 km/h (3 Bft) N-NO45 20 0 min 35,2 klux 241 W/m
23.05.2015 14:49 19,3 C 24,8 C 17,7 C 59 % 1019,9 hPa 0,0 l/m 23,4 km/h (4 Bft) N-NO45 20 0 min 31,9 klux 218 W/m
23.05.2015 14:54 19,1 C 24,4 C 17,7 C 60 % 1019,9 hPa 0,0 l/m 16,8 km/h (3 Bft) N67.5 10 0 min 36,3 klux 248 W/m
23.05.2015 14:58 19,0 C 24,2 C 17,7 C 61 % 1019,9 hPa 0,0 l/m 13,9 km/h (3 Bft) N67.5 350 0 min 38,7 klux 265 W/m
23.05.2015 15:04 18,8 C 24,9 C 17,7 C 63 % 1019,9 hPa 0,0 l/m 16,0 km/h (3 Bft) N45 355 0 min 38,4 klux 263 W/m
23.05.2015 15:09 18,5 C 24,4 C 17,7 C 63 % 1019,9 hPa 0,0 l/m 22,4 km/h (4 Bft) N-NW67.5 340 0 min 35,9 klux 246 W/m
23.05.2015 15:14 18,1 C 23,1 C 17,7 C 64 % 1019,9 hPa 0,0 l/m 21,1 km/h (4 Bft) N45 10 0 min 27,2 klux 186 W/m
23.05.2015 15:19 17,9 C 22,7 C 17,7 C 65 % 1019,9 hPa 0,0 l/m 19,2 km/h (3 Bft) N45 355 0 min 19,7 klux 135 W/m
23.05.2015 15:23 17,6 C 21,2 C 17,7 C 66 % 1019,9 hPa 0,0 l/m 15,5 km/h (3 Bft) N45 350 0 min 16,7 klux 114 W/m
23.05.2015 15:29 17,6 C 20,7 C 17,7 C 67 % 1019,9 hPa 0,0 l/m 19,6 km/h (3 Bft) N67.5 360 0 min 16,7 klux 114 W/m
23.05.2015 15:34 17,2 C 20,0 C 17,7 C 67 % 1019,9 hPa 0,0 l/m 23,6 km/h (4 Bft) N67.5 5 0 min 22,7 klux 155 W/m
23.05.2015 15:39 17,3 C 20,0 C 17,7 C 68 % 1019,9 hPa 0,0 l/m 19,8 km/h (3 Bft) N-NO67.5 25 0 min 23,5 klux 161 W/m
23.05.2015 15:44 17,4 C 20,1 C 17,7 C 68 % 1019,9 hPa 0,0 l/m 17,1 km/h (3 Bft) N22.5 5 0 min 23,0 klux 157 W/m
23.05.2015 15:49 17,3 C 20,4 C 17,7 C 68 % 1019,9 hPa 0,0 l/m 19,3 km/h (3 Bft) N22.5 10 0 min 30,8 klux 211 W/m
23.05.2015 15:53 17,3 C 20,8 C 17,7 C 69 % 1019,9 hPa 0,0 l/m 20,5 km/h (4 Bft) N-NO22.5 25 0 min 29,9 klux 205 W/m
23.05.2015 15:59 17,1 C 20,7 C 17,7 C 69 % 1019,9 hPa 0,0 l/m 23,4 km/h (4 Bft) N-NO45 15 0 min 27,8 klux 190 W/m
23.05.2015 16:04 17,1 C 20,5 C 17,7 C 69 % 1019,9 hPa 0,0 l/m 19,8 km/h (3 Bft) N45 5 0 min 30,9 klux 211 W/m
23.05.2015 16:09 16,4 C 20,5 C 17,7 C 70 % 1019,9 hPa 0,0 l/m 20,4 km/h (4 Bft) N67.5 360 0 min 30,0 klux 205 W/m
23.05.2015 16:14 16,2 C 20,1 C 17,6 C 71 % 1019,9 hPa 0,0 l/m 26,7 km/h (4 Bft) N67.5 10 0 min 26,3 klux 180 W/m
23.05.2015 16:19 16,1 C 19,7 C 17,6 C 72 % 1019,9 hPa 0,0 l/m 22,2 km/h (4 Bft) N-NO45 15 0 min 26,4 klux 181 W/m
23.05.2015 16:24 16,0 C 19,7 C 17,6 C 72 % 1019,9 hPa 0,0 l/m 21,0 km/h (4 Bft) N-NO45 30 0 min 24,2 klux 166 W/m
23.05.2015 16:29 15,9 C 19,3 C 17,5 C 72 % 1019,9 hPa 0,0 l/m 26,5 km/h (4 Bft) N-NO45 25 0 min 22,1 klux 151 W/m
23.05.2015 16:34 15,6 C 19,0 C 17,5 C 73 % 1019,9 hPa 0,0 l/m 21,8 km/h (4 Bft) N-NO45 25 0 min 22,9 klux 157 W/m
23.05.2015 16:39 15,6 C 19,0 C 17,5 C 73 % 1019,9 hPa 0,0 l/m 22,0 km/h (4 Bft) N-NO67.5 20 0 min 25,7 klux 176 W/m
23.05.2015 16:44 15,5 C 19,2 C 17,5 C 72 % 1019,9 hPa 0,0 l/m 22,5 km/h (4 Bft) N-NO45 20 0 min 23,7 klux 162 W/m
23.05.2015 16:49 15,3 C 18,6 C 17,4 C 73 % 1019,9 hPa 0,0 l/m 26,4 km/h (4 Bft) N67.5 5 0 min 20,4 klux 140 W/m
23.05.2015 16:54 15,5 C 18,6 C 17,4 C 73 % 1019,9 hPa 0,0 l/m 15,5 km/h (3 Bft) N-NO45 25 0 min 20,7 klux 142 W/m
23.05.2015 16:59 15,4 C 18,6 C 17,4 C 72 % 1019,9 hPa 0,0 l/m 14,1 km/h (3 Bft) N-NO45 25 0 min 20,9 klux 143 W/m
23.05.2015 17:04 15,5 C 18,9 C 17,3 C 73 % 1019,9 hPa 0,0 l/m 21,5 km/h (4 Bft) N-NO45 15 0 min 27,5 klux 188 W/m
23.05.2015 17:09 15,8 C 19,2 C 17,3 C 72 % 1019,9 hPa 0,0 l/m 18,0 km/h (3 Bft) N45 10 0 min 29,2 klux 200 W/m
23.05.2015 17:14 15,8 C 19,4 C 17,3 C 72 % 1019,9 hPa 0,0 l/m 16,2 km/h (3 Bft) N-NO45 15 0 min 27,4 klux 187 W/m
23.05.2015 17:19 15,7 C 20,0 C 17,3 C 71 % 1019,9 hPa 0,0 l/m 21,2 km/h (4 Bft) N22.5 10 0 min 26,2 klux 179 W/m
23.05.2015 17:24 15,8 C 20,0 C 17,3 C 71 % 1019,9 hPa 0,0 l/m 14,6 km/h (3 Bft) N-NO45 30 0 min 26,7 klux 183 W/m
23.05.2015 17:29 15,8 C 19,8 C 17,3 C 71 % 1019,9 hPa 0,0 l/m 17,5 km/h (3 Bft) N-NO45 15 0 min 23,3 klux 159 W/m
23.05.2015 17:34 15,6 C 19,3 C 17,3 C 72 % 1019,9 hPa 0,0 l/m 19,6 km/h (3 Bft) N22.5 10 0 min 17,4 klux 119 W/m
23.05.2015 17:39 15,6 C 18,3 C 17,2 C 71 % 1019,9 hPa 0,0 l/m 22,7 km/h (4 Bft) N-NW67.5 345 0 min 17,4 klux 119 W/m
23.05.2015 17:44 15,6 C 17,9 C 17,2 C 72 % 1019,9 hPa 0,0 l/m 18,2 km/h (3 Bft) N-NO45 30 0 min 14,3 klux 98 W/m
23.05.2015 17:48 15,6 C 17,9 C 17,2 C 71 % 1019,9 hPa 0,0 l/m 18,5 km/h (3 Bft) N-NO45 15 0 min 18,5 klux 127 W/m
23.05.2015 17:54 15,6 C 18,6 C 17,2 C 71 % 1019,9 hPa 0,0 l/m 12,9 km/h (3 Bft) N-NO45 15 0 min 20,4 klux 140 W/m
23.05.2015 17:59 15,6 C 18,6 C 17,2 C 71 % 1019,9 hPa 0,0 l/m 20,2 km/h (4 Bft) N45 10 0 min 20,4 klux 140 W/m
23.05.2015 18:04 15,6 C 18,2 C 17,2 C 71 % 1019,9 hPa 0,0 l/m 18,1 km/h (3 Bft) N-NO22.5 15 0 min 13,5 klux 92 W/m
23.05.2015 18:09 15,4 C 17,9 C 17,2 C 71 % 1019,9 hPa 0,0 l/m 20,4 km/h (4 Bft) N45 10 0 min 13,2 klux 90 W/m
23.05.2015 18:14 15,5 C 17,9 C 17,2 C 71 % 1019,9 hPa 0,0 l/m 16,0 km/h (3 Bft) N-NO67.5 15 0 min 13,2 klux 90 W/m
23.05.2015 18:19 15,5 C 18,1 C 17,2 C 71 % 1019,9 hPa 0,0 l/m 14,8 km/h (3 Bft) N45 5 0 min 12,6 klux 86 W/m
23.05.2015 18:24 15,6 C 17,6 C 17,2 C 71 % 1019,9 hPa 0,0 l/m 15,8 km/h (3 Bft) N22.5 10 0 min 9,5 klux 65 W/m
23.05.2015 18:29 15,5 C 17,1 C 17,2 C 71 % 1019,9 hPa 0,0 l/m 12,6 km/h (3 Bft) N-NO45 20 0 min 9,3 klux 63 W/m
23.05.2015 18:34 15,4 C 17,0 C 17,2 C 71 % 1019,9 hPa 0,0 l/m 17,0 km/h (3 Bft) N22.5 5 0 min 11,2 klux 77 W/m
23.05.2015 18:39 15,3 C 17,0 C 17,2 C 71 % 1019,9 hPa 0,0 l/m 13,0 km/h (3 Bft) N45 10 0 min 9,6 klux 66 W/m
23.05.2015 18:44 15,2 C 16,8 C 17,2 C 71 % 1019,9 hPa 0,0 l/m 13,0 km/h (3 Bft) N45 10 0 min 7,20 klux 49 W/m
23.05.2015 18:49 15,2 C 16,4 C 17,1 C 71 % 1019,9 hPa 0,0 l/m 13,5 km/h (3 Bft) N-NO45 30 0 min 6,68 klux 46 W/m
23.05.2015 18:54 15,0 C 16,1 C 17,1 C 71 % 1019,9 hPa 0,0 l/m 15,4 km/h (3 Bft) N-NO45 20 0 min 7,88 klux 54 W/m
23.05.2015 18:59 15,2 C 16,3 C 17,1 C 71 % 1019,9 hPa 0,0 l/m 18,0 km/h (3 Bft) N22.5 5 0 min 7,62 klux 52 W/m
23.05.2015 19:04 15,1 C 15,9 C 17,1 C 71 % 1019,9 hPa 0,0 l/m 19,6 km/h (3 Bft) N-NO22.5 20 0 min 5,12 klux 35 W/m
23.05.2015 19:09 15,1 C 15,8 C 17,1 C 71 % 1019,9 hPa 0,0 l/m 15,1 km/h (3 Bft) N-NO45 15 0 min 5,02 klux 34 W/m
23.05.2015 19:14 15,0 C 15,5 C 17,1 C 71 % 1019,9 hPa 0,0 l/m 14,6 km/h (3 Bft) N67.5 10 0 min 4,85 klux 33 W/m
23.05.2015 19:19 15,0 C 15,3 C 17,1 C 71 % 1019,9 hPa 0,0 l/m 15,0 km/h (3 Bft) N-NO45 30 0 min 4,33 klux 30 W/m
23.05.2015 19:24 15,0 C 15,2 C 17,0 C 71 % 1019,9 hPa 0,0 l/m 19,1 km/h (3 Bft) N-NO45 30 0 min 5,13 klux 35 W/m
23.05.2015 19:29 15,0 C 15,2 C 17,0 C 71 % 1019,9 hPa 0,0 l/m 18,8 km/h (3 Bft) N-NO45 15 0 min 5,52 klux 38 W/m
23.05.2015 19:34 15,0 C 15,3 C 17,0 C 70 % 1019,9 hPa 0,0 l/m 19,6 km/h (3 Bft) NO45 50 0 min 4,75 klux 32 W/m
23.05.2015 19:39 15,0 C 15,3 C 17,0 C 70 % 1019,9 hPa 0,0 l/m 25,1 km/h (4 Bft) NO45 45 0 min 5,63 klux 39 W/m
23.05.2015 19:43 14,8 C 15,3 C 16,9 C 70 % 1019,9 hPa 0,0 l/m 21,1 km/h (4 Bft) N-NO45 30 0 min 4,96 klux 34 W/m
23.05.2015 19:49 14,9 C 15,2 C 16,9 C 70 % 1019,9 hPa 0,0 l/m 18,6 km/h (3 Bft) N-NO45 30 0 min 4,55 klux 31 W/m
23.05.2015 19:54 14,8 C 15,0 C 16,9 C 70 % 1019,9 hPa 0,0 l/m 20,3 km/h (4 Bft) N-NO45 25 0 min 4,15 klux 28 W/m
23.05.2015 19:59 14,7 C 15,0 C 16,9 C 70 % 1020,0 hPa 0,0 l/m 20,0 km/h (4 Bft) N-NO45 25 0 min 3,81 klux 26 W/m
23.05.2015 20:04 14,8 C 14,9 C 16,8 C 70 % 1019,9 hPa 0,0 l/m 16,2 km/h (3 Bft) NO45 45 0 min 4,22 klux 29 W/m
23.05.2015 20:08 14,8 C 14,9 C 16,8 C 70 % 1019,9 hPa 0,0 l/m 16,1 km/h (3 Bft) NO22.5 50 0 min 4,24 klux 29 W/m
23.05.2015 20:14 14,8 C 14,8 C 16,8 C 69 % 1019,9 hPa 0,0 l/m 25,1 km/h (4 Bft) NO45 50 0 min 4,03 klux 28 W/m
23.05.2015 20:19 14,6 C 14,8 C 16,8 C 69 % 1020,0 hPa 0,0 l/m 22,7 km/h (4 Bft) NO22.5 45 0 min 4,03 klux 28 W/m
23.05.2015 20:24 14,6 C 14,6 C 16,8 C 69 % 1020,0 hPa 0,0 l/m 19,7 km/h (3 Bft) N-NO22.5 20 0 min 3,25 klux 22 W/m
23.05.2015 20:29 14,6 C 14,6 C 16,7 C 69 % 1020,0 hPa 0,0 l/m 12,8 km/h (3 Bft) N-NO45 30 0 min 3,14 klux 21 W/m
23.05.2015 20:34 14,5 C 14,5 C 16,7 C 69 % 1020,0 hPa 0,0 l/m 20,2 km/h (4 Bft) NO67.5 40 0 min 3,06 klux 21 W/m
23.05.2015 20:39 14,6 C 14,3 C 16,7 C 69 % 1020,0 hPa 0,0 l/m 16,5 km/h (3 Bft) N-NO22.5 20 0 min 2,42 klux 17 W/m
23.05.2015 20:44 14,6 C 14,2 C 16,6 C 69 % 1020,0 hPa 0,0 l/m 13,6 km/h (3 Bft) NO67.5 35 0 min 1,85 klux 13 W/m
23.05.2015 20:49 14,5 C 14,1 C 16,6 C 69 % 1020,0 hPa 0,0 l/m 21,7 km/h (4 Bft) NO45 40 0 min 1,42 klux 10 W/m
23.05.2015 20:54 14,4 C 14,1 C 16,6 C 69 % 1020,0 hPa 0,0 l/m 20,0 km/h (4 Bft) NO45 35 0 min 902 lux 6 W/m
23.05.2015 20:59 14,4 C 14,0 C 16,6 C 69 % 1021,0 hPa 0,0 l/m 19,9 km/h (4 Bft) NO67.5 40 0 min 900 lux 6 W/m
23.05.2015 21:03 14,5 C 13,9 C 16,5 C 69 % 1021,0 hPa 0,0 l/m 19,5 km/h (3 Bft) N-NO22.5 30 0 min 921 lux 6 W/m
23.05.2015 21:09 14,5 C 13,8 C 16,5 C 68 % 1021,0 hPa 0,0 l/m 13,6 km/h (3 Bft) NO22.5 35 0 min 886 lux 6 W/m
23.05.2015 21:14 14,4 C 13,7 C 16,5 C 68 % 1021,0 hPa 0,0 l/m 19,4 km/h (3 Bft) N-NO45 30 0 min 933 lux 6 W/m
23.05.2015 21:19 14,3 C 13,6 C 16,5 C 67 % 1021,0 hPa 0,0 l/m 20,0 km/h (4 Bft) NO45 35 0 min 698 lux 5 W/m
23.05.2015 21:24 14,4 C 13,6 C 16,5 C 67 % 1021,0 hPa 0,0 l/m 16,7 km/h (3 Bft) NO45 45 0 min 497 lux 0 W/m
23.05.2015 21:29 14,4 C 13,3 C 16,5 C 67 % 1021,0 hPa 0,0 l/m 16,8 km/h (3 Bft) NO45 50 0 min 336 lux 0 W/m
23.05.2015 21:34 14,4 C 13,2 C 16,5 C 67 % 1021,0 hPa 0,0 l/m 18,6 km/h (3 Bft) NO22.5 40 0 min 242 lux 0 W/m
23.05.2015 21:38 14,3 C 13,1 C 16,5 C 68 % 1021,0 hPa 0,0 l/m 15,7 km/h (3 Bft) NO45 50 0 min 173 lux 0 W/m
23.05.2015 21:44 14,3 C 13,0 C 16,5 C 67 % 1021,0 hPa 0,0 l/m 17,6 km/h (3 Bft) NO22.5 40 0 min 173 lux 0 W/m
23.05.2015 21:49 14,3 C 12,9 C 16,4 C 67 % 1021,0 hPa 0,0 l/m 15,1 km/h (3 Bft) NO22.5 40 0 min 42 lux 0 W/m
23.05.2015 21:54 14,3 C 12,8 C 16,4 C 67 % 1021,0 hPa 0,0 l/m 13,8 km/h (3 Bft) NO22.5 50 0 min 31 lux 0 W/m
23.05.2015 21:59 14,3 C 12,8 C 16,4 C 68 % 1021,0 hPa 0,0 l/m 9,4 km/h (2 Bft) NO22.5 40 0 min 17 lux 0 W/m
23.05.2015 22:04 14,2 C 12,7 C 16,4 C 67 % 1021,0 hPa 0,0 l/m 13,6 km/h (3 Bft) NO22.5 35 0 min 9 lux 0 W/m
23.05.2015 22:09 14,2 C 12,6 C 16,4 C 67 % 1021,0 hPa 0,0 l/m 12,6 km/h (3 Bft) NO22.5 40 0 min 6 lux 0 W/m
23.05.2015 22:14 14,1 C 12,5 C 16,4 C 68 % 1021,0 hPa 0,0 l/m 14,4 km/h (3 Bft) NO22.5 45 0 min 1 lux 0 W/m
23.05.2015 22:19 14,1 C 12,2 C 16,4 C 68 % 1021,0 hPa 0,0 l/m 9,7 km/h (2 Bft) NO22.5 35 0 min 0 lux 0 W/m
23.05.2015 22:24 14,1 C 11,9 C 16,4 C 68 % 1021,0 hPa 0,0 l/m 10,9 km/h (2 Bft) NO22.5 45 0 min 0 lux 0 W/m
23.05.2015 22:29 14,1 C 11,7 C 16,4 C 68 % 1021,0 hPa 0,0 l/m 9,4 km/h (2 Bft) N-NO 30 0 min 0 lux 0 W/m
23.05.2015 22:34 14,0 C 11,5 C 16,4 C 68 % 1021,0 hPa 0,0 l/m 9,4 km/h (2 Bft) NO22.5 40 0 min 0 lux 0 W/m
23.05.2015 22:39 13,9 C 11,3 C 16,4 C 69 % 1021,0 hPa 0,0 l/m 8,2 km/h (2 Bft) NO 35 0 min 0 lux 0 W/m
23.05.2015 22:44 13,8 C 11,1 C 16,4 C 69 % 1021,0 hPa 0,0 l/m 8,1 km/h (2 Bft) N-NO22.5 30 0 min 0 lux 0 W/m
23.05.2015 22:49 13,8 C 11,0 C 16,4 C 69 % 1021,0 hPa 0,0 l/m 7,2 km/h (2 Bft) N-NO 30 0 min 0 lux 0 W/m
23.05.2015 22:54 13,7 C 10,8 C 16,3 C 69 % 1021,0 hPa 0,0 l/m 7,8 km/h (2 Bft) NO 35 0 min 0 lux 0 W/m
23.05.2015 22:59 13,7 C 10,6 C 16,4 C 69 % 1021,0 hPa 0,0 l/m 4,5 km/h (1 Bft) NO 40 0 min 0 lux 0 W/m
23.05.2015 23:04 13,5 C 10,6 C 16,4 C 70 % 1021,0 hPa 0,0 l/m 6,1 km/h (2 Bft) NO 35 0 min 0 lux 0 W/m
23.05.2015 23:09 13,4 C 10,3 C 16,3 C 70 % 1021,0 hPa 0,0 l/m 5,2 km/h (1 Bft) NO 35 0 min 0 lux 0 W/m
23.05.2015 23:14 13,4 C 10,1 C 16,4 C 70 % 1021,0 hPa 0,0 l/m 5,7 km/h (2 Bft) NO 35 0 min 0 lux 0 W/m
23.05.2015 23:19 13,2 C 10,0 C 16,4 C 71 % 1021,0 hPa 0,0 l/m 3,5 km/h (1 Bft) NO 35 0 min 0 lux 0 W/m
23.05.2015 23:24 12,9 C 9,8 C 16,3 C 72 % 1021,0 hPa 0,0 l/m 0,0 km/h (0 Bft) NO 35 0 min 0 lux 0 W/m
23.05.2015 23:29 12,9 C 9,6 C 16,3 C 72 % 1021,0 hPa 0,0 l/m 0,0 km/h (0 Bft) NO 35 0 min 0 lux 0 W/m
23.05.2015 23:34 12,7 C 9,5 C 16,3 C 73 % 1021,0 hPa 0,0 l/m 0,0 km/h (0 Bft) NO 35 0 min 0 lux 0 W/m
23.05.2015 23:39 12,6 C 9,4 C 16,3 C 72 % 1021,0 hPa 0,0 l/m 0,1 km/h (0 Bft) NO 35 0 min 0 lux 0 W/m
23.05.2015 23:44 12,6 C 9,3 C 16,3 C 73 % 1021,0 hPa 0,0 l/m 0,0 km/h (0 Bft) NO 35 0 min 0 lux 0 W/m
23.05.2015 23:49 12,6 C 9,3 C 16,3 C 73 % 1021,0 hPa 0,0 l/m 3,6 km/h (1 Bft) NO 35 0 min 0 lux 0 W/m
23.05.2015 23:54 12,6 C 9,3 C 16,3 C 73 % 1021,0 hPa 0,0 l/m 7,4 km/h (2 Bft) N-NO22.5 25 0 min 0 lux 0 W/m
23.05.2015 23:59 12,5 C 9,6 C 16,3 C 73 % 1021,0 hPa 0,0 l/m 8,9 km/h (2 Bft) N22.5 360 0 min 0 lux 0 W/m
_ Min-Zeit 03:44 23:44 07:29 12:09 13:28 - 01:04 - - - - -
Minimum _ 12,5 C 9,3 C 16,3 C 41 % 1019,9 hPa - 0,0 km/h (0 Bft) - - - - -
_ Max-Zeit 13:28 11:34 14:24 04:24 02:29 00:04 08:19 - - 10:44 05:39 05:39
Maximum _ 20,3 C 39,0 C 17,7 C 77 % 1022,0 hPa 0,0 l/m 56,2 km/h
N (7 Bft)
- - 6 min 200 klux 1368 W/m
Durchschnitt _ 15,3 C 18,4 C 16,8 C 66 % 1020,7 hPa #0,0 l/m 11,3 km/h (2 Bft) N - #3:25 h 22,0 klux 229 W/m